Regional Weather Roundup
Issued by NWS

Home | Current Version | Previous Version | Text Only | Print | Product List | Glossary On
Versions: 1 2 3 4 5 6 7 8 9 10 11 12 13 14 15 16 17 18 19 20 21 22 23 24 25 26 27 28 29 30 31 32 33 34 35 36 37 38 39 40 41 42 43 44 45 46 47 48 49 50
000
ASUS45 KABQ 140110
RWRNM
NEW MEXICO REGIONAL WEATHER ROUNDUP
NATIONAL WEATHER SERVICE ALBUQUERQUE NM
600 PM MST WED DEC 13 2017

NOTE: "FAIR" MEANS FEW OR NO CLOUDS BELOW 12,000 FEET AGL WITH NO
       SIGNIFICANT WEATHER OR OBSTRUCTIONS TO VISION.

      THIS PRODUCT IS RELEASED AS TWO VERSIONS.  ONE VERSION NEAR
      THE TOP OF THE HOUR CONTAINING PRELIMINARY DATA FROM ALBUQUERQUE
      AND OTHER STATIONS.  A FINAL VERSION WITH ADDITIONAL DATA IS
      ISSUED ABOUT 10 MINUTES AFTER THE HOUR.

NMZ501-503-504-510>518-140200-
NORTHWEST PLATEAU/NORTHCENTRAL MOUNTAINS

CITY           SKY/WX    TMP DP  RH WIND       PRES   REMARKS
FARMINGTON     FAIR      36   5  27 W3        30.03F
LOS ALAMOS     FAIR      42   6  23 S12       30.06F
SANTA FE       FAIR      40   6  24 E5        30.04S
TAOS           FAIR      40   6  24 SW8       30.07R WCI  34
ANGEL FIRE     FAIR      33   7  33 S8        30.09R WCI  26

$$
NMZ402-403-502-505>509-140200-
WESTCENTRAL MOUNTAINS/SOUTHWEST MOUNTAINS

CITY           SKY/WX    TMP DP  RH WIND       PRES   REMARKS
GALLUP         FAIR      42   3  19 SW5       30.07S
GRANTS         FAIR      40   4  22 W8        30.07S WCI  34
SILVER CITY    FAIR      45  16  31 NW9       30.05S

$$
NMZ407-409-411-412-140200-
SOUTHERN DESERTS

CITY           SKY/WX    TMP DP  RH WIND       PRES   REMARKS
DEMING         FAIR      53  19  26 SW5       30.02S
LAS CRUCES     FAIR      51  17  25 W7        30.03S
HOLLOMAN AFB   FAIR      47   8  20 N3        30.03S
ALAMOGORDO     FAIR      45   5  19 CALM      30.02S
T OR C         FAIR      52   8  17 CALM      30.02S

$$
NMZ519>523-140200-
CENTRAL VALLEYS/CENTRAL HIGHLANDS

CITY           SKY/WX    TMP DP  RH WIND       PRES   REMARKS
ALBUQUERQUE    FAIR      46   4  17 SE5       30.03F
DOUBLE EAGLE   CLEAR     32   1  27 SW5       30.05S WCI  27
MORIARTY ARPT  FAIR      37   8  29 SE5       30.06R WCI  34
CLINES CORNERS FAIR      37   8  30 SE8       30.07F WCI  31
BELEN          FAIR      39   4  22 CALM      30.03S
SOCORRO        FAIR      43   2  18 SW7       30.02F

$$
NMZ524>526-539-540-140200-
SOUTHCENTRAL MOUNTAINS

CITY           SKY/WX    TMP DP  RH WIND       PRES   REMARKS
RUIDOSO        FAIR      45   5  19 S8        30.09S

$$
NMZ527>531-140200-
NORTHEAST HIGHLANDS/NORTHEAST PLAINS

CITY           SKY/WX    TMP DP  RH WIND       PRES   REMARKS
LAS VEGAS      FAIR      31   5  33 S9        30.06S WCI  23
RATON          FAIR      38   5  25 W3        30.03R
CLAYTON        FAIR      40  10  29 N3        30.03R

$$
NMZ532>537-140200-
EASTCENTRAL PLAINS

CITY           SKY/WX    TMP DP  RH WIND       PRES   REMARKS
SANTA ROSA     FAIR      45   9  23 E10       30.01F
TUCUMCARI      FAIR      41  11  29 NE7       29.99R
CANNON AFB     FAIR      42  12  29 NE9       30.00S
CLOVIS AIRPORT FAIR      37  13  37 N9        30.00S WCI  30

$$
NMZ028-029-538-140200-
SOUTHEAST PLAINS

CITY           SKY/WX    TMP DP  RH WIND       PRES   REMARKS
ROSWELL        FAIR      52  13  21 NW3       29.97R
ARTESIA        FAIR      48  10  21 W12       29.97S
CARLSBAD       FAIR      50  19  29 W12       29.95R
HOBBS          CLEAR     48  12  23 W7        29.95R


$$



USA.gov is the U.S. government's official web portal to all federal, state and local government web resources and services.